Plymouth, NH

9:19 PM EST on December 07, 2016 (GMT -0500)
Plymouth

Weather History for K1P1 - June, 2014

Change the Weather History Date:

Monday, June 9, 2014

  Actual Average (KLCI) Record (KLCI)
Temperature  
Mean Temperature 68 °F -  
Max Temperature 83 °F 73 °F 91 °F (2008)
Min Temperature 54 °F 51 °F 40 °F (1980)
Cooling Degree Days 4    
Growing Degree Days 18 (Base 50)    
Moisture  
Dew Point 58 °F    
Average Humidity 73    
Maximum Humidity 96    
Minimum Humidity 42    
Precipitation  
Precipitation 0.00 in - - ()
Sea Level Pressure  
Sea Level Pressure 29.93 in    
Wind  
Wind Speed 1 mph (SSW)    
Max Wind Speed 8 mph    
Max Gust Speed -    
Visibility 10 miles    
Events      
Averages and records for this station are not official NWS values.
T = Trace of Precipitation, MM = Missing Value Source: NWS Daily Summary

Daily Weather History Graph

Daily Weather History Graph

Search for Another Location

Airport or City:

Trip Planner

Search our weather history database for the weather conditions in past years. The results will help you decide how hot, cold, wet, or windy it might be!

Date:

Astronomy

Jun. 09, 2014 Rise Set
Actual Time 5:05 AM EDT 8:27 PM EDT
Civil Twilight 4:29 AM EDT 9:03 PM EDT
Nautical Twilight 3:42 AM EDT 9:50 PM EDT
Astronomical Twilight 2:44 AM EDT 10:48 PM EDT
Moon 4:39 PM EDT (6/9) 2:37 AM EDT (6/9)
Length of Visible Light 16h 34m
Length of Day
15h 22m
Waxing Gibbous, 85% of the Moon is Illuminated
Jun 9
Waxing Gibbous
Jun 13
Full
Jun 19
Last Quarter
Jun 27
New
Jul 5
First Quarter

Hourly Weather History & Observations

Time (EDT) Temp. Heat Index Dew Point Humidity Pressure Visibility Wind Dir Wind Speed Gust Speed Precip Events Conditions
12:15 AM 59.0 °F - 56.7 °F 92% 29.91 in 10.0 mi Calm Calm - N/A   Clear
12:35 AM 59.0 °F - 56.7 °F 92% 29.91 in 10.0 mi Calm Calm - N/A   Clear
12:55 AM 58.3 °F - 56.5 °F 94% 29.91 in 10.0 mi Calm Calm - N/A   Clear
1:15 AM 57.4 °F - 55.8 °F 94% 29.91 in 10.0 mi Calm Calm - N/A   Clear
1:35 AM 57.2 °F - 55.6 °F 94% 29.91 in 10.0 mi Calm Calm - N/A   Clear
1:55 AM 57.2 °F - 55.8 °F 95% 29.91 in 10.0 mi Calm Calm - N/A   Clear
2:15 AM 57.2 °F - 55.4 °F 94% 29.91 in 10.0 mi Calm Calm - N/A   Clear
2:35 AM 56.7 °F - 55.0 °F 94% 29.90 in 10.0 mi Calm Calm - N/A   Clear
2:55 AM 56.1 °F - 54.5 °F 94% 29.90 in 10.0 mi Calm Calm - N/A   Clear
3:15 AM 55.9 °F - 54.5 °F 95% 29.91 in 10.0 mi Calm Calm - N/A   Clear
3:35 AM 55.4 °F - 54.1 °F 96% 29.91 in 5.0 mi Calm Calm - N/A   Clear
3:55 AM 55.4 °F - 54.1 °F 96% 29.91 in 7.0 mi Calm Calm - N/A   Clear
4:15 AM 54.7 °F - 53.4 °F 96% 29.91 in 10.0 mi Calm Calm - N/A   Clear
4:35 AM 55.4 °F - 54.1 °F 96% 29.91 in 10.0 mi Calm Calm - N/A   Clear
4:55 AM 55.4 °F - 54.0 °F 95% 29.92 in 10.0 mi Calm Calm - N/A   Clear
5:15 AM 55.0 °F - 53.8 °F 96% 29.92 in 10.0 mi Calm Calm - N/A   Clear
5:35 AM 55.6 °F - 54.5 °F 96% 29.92 in 10.0 mi Calm Calm - N/A   Clear
5:55 AM 55.8 °F - 54.5 °F 96% 29.93 in 10.0 mi Calm Calm - N/A   Clear
6:15 AM 56.3 °F - 54.9 °F 95% 29.93 in 10.0 mi Calm Calm - N/A   Clear
6:35 AM 57.0 °F - 55.6 °F 95% 29.94 in 10.0 mi Calm Calm - N/A   Scattered Clouds
6:55 AM 58.3 °F - 56.7 °F 94% 29.94 in 10.0 mi Calm Calm - N/A   Scattered Clouds
7:15 AM 59.9 °F - 56.5 °F 88% 29.94 in 10.0 mi Calm Calm - N/A   Clear
7:35 AM 60.6 °F - 56.3 °F 86% 29.94 in 10.0 mi Calm Calm - N/A   Scattered Clouds
7:55 AM 61.3 °F - 56.3 °F 83% 29.94 in 10.0 mi Calm Calm - N/A   Clear
8:15 AM 62.2 °F - 56.7 °F 82% 29.95 in 10.0 mi Calm Calm - N/A   Clear
8:55 AM 67.3 °F - 58.1 °F 72% 29.94 in 10.0 mi Calm Calm - N/A   Clear
9:15 AM 70.0 °F - 58.6 °F 67% 29.94 in 10.0 mi Calm Calm - N/A   Clear
9:35 AM 71.4 °F - 57.9 °F 62% 29.94 in 10.0 mi Calm Calm - N/A   Scattered Clouds
9:55 AM 72.7 °F - 59.2 °F 62% 29.94 in 10.0 mi Calm Calm - N/A   Scattered Clouds
10:15 AM 74.5 °F - 59.4 °F 59% 29.94 in 10.0 mi Calm Calm - N/A   Clear
11:15 AM 78.8 °F - 60.3 °F 53% 29.93 in 10.0 mi South 3.5 mph - N/A   Clear
11:35 AM 77.4 °F - 60.1 °F 55% 29.92 in 10.0 mi SSE 5.8 mph - N/A   Clear
11:55 AM 78.4 °F - 60.8 °F 55% 29.91 in 10.0 mi SSE 5.8 mph - N/A   Clear
12:35 PM 83.7 °F 83.4 °F 58.8 °F 43% 29.90 in 10.0 mi SSE 8.1 mph - N/A   Scattered Clouds
12:55 PM 81.3 °F 81.1 °F 56.5 °F 42% 29.90 in 10.0 mi South 3.5 mph - N/A   Mostly Cloudy
1:15 PM 80.6 °F 80.8 °F 57.2 °F 45% 29.90 in 10.0 mi WSW 3.5 mph - N/A   Overcast
1:35 PM 80.6 °F 80.8 °F 57.6 °F 45% 29.91 in 10.0 mi WNW 5.8 mph - N/A   Overcast
1:55 PM 79.7 °F - 58.1 °F 47% 29.91 in 10.0 mi West 4.6 mph - N/A   Overcast
2:15 PM 79.0 °F - 58.5 °F 49% 29.91 in 7.0 mi WSW 3.5 mph - N/A   Overcast
2:35 PM 78.1 °F - 60.6 °F 55% 29.91 in 10.0 mi Calm Calm - N/A   Overcast
2:55 PM 79.0 °F - 58.8 °F 50% 29.91 in 10.0 mi West 3.5 mph - N/A   Overcast
3:55 PM 78.1 °F - 61.7 °F 57% 29.91 in 10.0 mi Calm Calm - N/A   Overcast
4:15 PM 77.9 °F - 62.8 °F 60% 29.91 in 10.0 mi Calm Calm - N/A   Overcast
4:35 PM 78.4 °F - 59.5 °F 52% 29.91 in 10.0 mi West 3.5 mph - N/A   Overcast
4:55 PM 77.4 °F - 61.9 °F 59% 29.91 in 10.0 mi Calm Calm - N/A   Overcast
5:15 PM 77.0 °F - 63.3 °F 63% 29.91 in 10.0 mi SE 3.5 mph - N/A   Overcast
5:35 PM 77.0 °F - 62.6 °F 61% 29.92 in 10.0 mi South 5.8 mph - N/A   Mostly Cloudy
5:55 PM 76.5 °F - 61.3 °F 59% 29.92 in 10.0 mi South 4.6 mph - N/A   Scattered Clouds
6:15 PM 77.4 °F - 59.5 °F 54% 29.92 in 10.0 mi SSE 3.5 mph - N/A   Scattered Clouds
6:35 PM 77.0 °F - 60.1 °F 56% 29.92 in 10.0 mi SE 3.5 mph - N/A   Scattered Clouds
6:55 PM 76.1 °F - 59.5 °F 56% 29.93 in 10.0 mi Calm Calm - N/A   Clear
7:15 PM 76.5 °F - 58.1 °F 53% 29.93 in 10.0 mi Calm Calm - N/A   Clear
7:35 PM 74.7 °F - 61.0 °F 62% 29.94 in 10.0 mi Calm Calm - N/A   Scattered Clouds
7:55 PM 73.8 °F - 60.4 °F 63% 29.94 in 10.0 mi Calm Calm - N/A   Scattered Clouds
8:15 PM 72.9 °F - 62.1 °F 69% 29.94 in 10.0 mi SSE 3.5 mph - N/A   Clear
8:35 PM 70.5 °F - 62.6 °F 76% 29.94 in 10.0 mi Calm Calm - N/A   Clear
8:55 PM 69.6 °F - 62.1 °F 77% 29.95 in 10.0 mi Calm Calm - N/A   Mostly Cloudy
9:15 PM 68.9 °F - 61.3 °F 77% 29.95 in 10.0 mi West 3.5 mph - N/A   Scattered Clouds
9:35 PM 70.0 °F - 59.0 °F 68% 29.95 in 10.0 mi Calm Calm - N/A   Clear
9:55 PM 65.8 °F - 60.6 °F 83% 29.95 in 10.0 mi WNW 4.6 mph - N/A   Clear
10:15 PM 67.5 °F - 58.5 °F 73% 29.96 in 10.0 mi WNW 3.5 mph - N/A   Mostly Cloudy
10:35 PM 67.8 °F - 58.1 °F 71% 29.96 in 10.0 mi Calm Calm - N/A   Overcast
10:55 PM 67.3 °F - 58.5 °F 73% 29.96 in 10.0 mi SSE 3.5 mph - N/A   Mostly Cloudy
11:15 PM 64.9 °F - 60.1 °F 84% 29.96 in 10.0 mi Calm Calm - N/A   Scattered Clouds
11:35 PM 66.2 °F - 57.2 °F 73% 29.96 in 10.0 mi WNW 5.8 mph - N/A   Clear
11:55 PM 66.6 °F - 56.7 °F 70% 29.96 in 10.0 mi WNW 5.8 mph - N/A   Clear